Find Local Weather

World > North America > United States > Nevada

Pizen Switch, Nevada Regional Weather

Lat: 39.00N, Lon: 119.16W
Wx Zone: NVZ001
Feedback

Pizen Switch, NV Regional Weather

Expires:201905251400;;435852
ASUS45 KREV 251310
RWRNV 
NEVADA REGIONAL WEATHER ROUNDUP
NATIONAL WEATHER SERVICE RENO NV
600 AM PDT SAT MAY 25 2019

NOTE: "FAIR" INDICATES FEW OR NO CLOUDS BELOW 12,000 FEET WITH NO
SIGNIFICANT WEATHER AND/OR OBSTRUCTIONS TO VISIBILITY.


NVZ001-003-004-251400-
WESTERN NEVADA
  
CITY           SKY/WX    TMP DP  RH WIND       PRES   REMARKS
RENO           MOCLDY    47  35  63 VRB3      29.88S                  
CARSON CITY    FAIR      41  34  75 E9        29.87S                  
MINDEN         CLOUDY    37  34  87 CALM      29.89S                  
SLIDE MTN        N/A     30  30 100 SW5         N/A                   
FALLON         MOCLDY    47  45  93 CALM      29.86S                  
LOVELOCK       MOCLDY    45  40  82 CALM      29.86R                  
HAWTHORNE      PTCLDY    46  46 100 SW6       29.87S                  
$$


SKY/WX - Weather  TMP - Temperature  DP - Dew Point  RH - Relative Humidity
WIND - Wind Direction/Speed PRES - Barometric Pressure VSB - Visibility
WCI - Wind Chill Index E13G22 Wind - East Wind 13 mph/Gusts of 22 mph